Year,Month,Day,Hour,Minute,Value (Times are PST for temperature in C)
2015,02,11,13,20,10.20
2015,02,11,13,21,10.30
2015,02,11,13,22,10.30
2015,02,11,13,23,10.40
2015,02,11,13,24,10.40
2015,02,11,13,25,10.60
2015,02,11,13,26,10.70
2015,02,11,13,27,10.80
2015,02,11,13,28,10.90
2015,02,11,13,29,11.10
2015,02,11,13,30,11.10
2015,02,11,13,31,11.20
2015,02,11,13,32,11.30
2015,02,11,13,33,11.40
2015,02,11,13,34,11.40
2015,02,11,13,35,11.40
2015,02,11,13,36,11.50
2015,02,11,13,37,11.60
2015,02,11,13,38,11.60
2015,02,11,13,39,11.60
2015,02,11,13,40,11.60
2015,02,11,13,41,11.50
2015,02,11,13,42,11.40
2015,02,11,13,43,11.40
2015,02,11,13,44,11.40
2015,02,11,13,45,11.50
2015,02,11,13,46,11.60
2015,02,11,13,47,11.60
2015,02,11,13,48,11.60
2015,02,11,13,49,11.70
2015,02,11,13,50,11.80
2015,02,11,13,51,11.80
2015,02,11,13,52,11.80
2015,02,11,13,53,11.80
2015,02,11,13,54,11.80
2015,02,11,13,55,11.80
2015,02,11,13,56,11.80
2015,02,11,13,57,11.80
2015,02,11,13,58,11.70
2015,02,11,13,59,11.60
2015,02,11,14,00,11.60
2015,02,11,14,01,11.50
2015,02,11,14,02,11.40
2015,02,11,14,03,11.40
2015,02,11,14,04,11.40
2015,02,11,14,05,11.40
2015,02,11,14,06,11.40
2015,02,11,14,07,11.30
2015,02,11,14,08,11.30
2015,02,11,14,09,11.30
2015,02,11,14,10,11.30
2015,02,11,14,11,11.30
2015,02,11,14,12,11.30
2015,02,11,14,13,11.30
2015,02,11,14,14,11.30
2015,02,11,14,15,11.30
2015,02,11,14,16,11.30
2015,02,11,14,17,11.30
2015,02,11,14,18,11.40
2015,02,11,14,19,11.40
2015,02,11,14,20,11.40
2015,02,11,14,21,11.40
2015,02,11,14,22,11.40
2015,02,11,14,23,11.40
2015,02,11,14,24,11.50
2015,02,11,14,25,11.50
2015,02,11,14,26,11.40
2015,02,11,14,27,11.40
2015,02,11,14,28,11.40
2015,02,11,14,29,11.40
2015,02,11,14,30,11.40
2015,02,11,14,31,11.40
2015,02,11,14,32,11.40
2015,02,11,14,33,11.40
2015,02,11,14,34,11.40
2015,02,11,14,35,11.40
2015,02,11,14,36,11.40
2015,02,11,14,37,11.40
2015,02,11,14,38,11.40
2015,02,11,14,39,11.40
2015,02,11,14,40,11.40
2015,02,11,14,41,11.40
2015,02,11,14,42,11.40
2015,02,11,14,43,11.40
2015,02,11,14,44,11.40
2015,02,11,14,45,11.40
2015,02,11,14,46,11.40
2015,02,11,14,47,11.40
2015,02,11,14,48,11.40
2015,02,11,14,49,11.50
2015,02,11,14,50,11.60
2015,02,11,14,51,11.60
2015,02,11,14,52,11.60
2015,02,11,14,53,11.60
2015,02,11,14,54,11.60
2015,02,11,14,55,11.50
2015,02,11,14,56,11.40
2015,02,11,14,57,11.40
2015,02,11,14,58,11.40
2015,02,11,14,59,11.40
2015,02,11,15,00,11.40
2015,02,11,15,01,11.50
2015,02,11,15,02,11.60
2015,02,11,15,03,11.60
2015,02,11,15,04,11.60
2015,02,11,15,05,11.60
2015,02,11,15,06,11.60
2015,02,11,15,07,11.60
2015,02,11,15,08,11.60
2015,02,11,15,09,11.60
2015,02,11,15,10,11.60
2015,02,11,15,11,11.60
2015,02,11,15,12,11.60
2015,02,11,15,13,11.60
2015,02,11,15,14,11.60
2015,02,11,15,15,11.60
2015,02,11,15,16,11.60
2015,02,11,15,17,11.60
2015,02,11,15,18,11.60
2015,02,11,15,19,11.60
2015,02,11,15,20,11.60
2015,02,11,15,21,11.60
2015,02,11,15,22,11.60
2015,02,11,15,23,11.60
2015,02,11,15,24,11.60
2015,02,11,15,25,11.60
2015,02,11,15,26,11.60
2015,02,11,15,27,11.60
2015,02,11,15,28,11.60
2015,02,11,15,29,11.40
2015,02,11,15,30,11.40
2015,02,11,15,31,11.40
2015,02,11,15,32,11.40
2015,02,11,15,33,11.40
2015,02,11,15,34,11.40
2015,02,11,15,35,11.40
2015,02,11,15,36,11.40
2015,02,11,15,37,11.40
2015,02,11,15,38,11.40
2015,02,11,15,39,11.40
2015,02,11,15,40,11.30
2015,02,11,15,41,11.30
2015,02,11,15,42,11.30
2015,02,11,15,43,11.30
2015,02,11,15,44,11.30
2015,02,11,15,45,11.20
2015,02,11,15,46,11.20
2015,02,11,15,47,11.20
2015,02,11,15,48,11.20
2015,02,11,15,49,11.20
2015,02,11,15,50,11.20
2015,02,11,15,51,11.20
2015,02,11,15,52,11.20
2015,02,11,15,53,11.20
2015,02,11,15,54,11.20
2015,02,11,15,55,11.10
2015,02,11,15,56,11.10
2015,02,11,15,57,11.10
2015,02,11,15,58,11.10
2015,02,11,15,59,11.10
2015,02,11,16,00,11.10
2015,02,11,16,01,11.10
2015,02,11,16,02,11.10
2015,02,11,16,03,11.10
2015,02,11,16,04,11.10
2015,02,11,16,05,11.10
2015,02,11,16,06,11.10
2015,02,11,16,07,11.10
2015,02,11,16,08,11.10
2015,02,11,16,09,11.10
2015,02,11,16,10,11.10
2015,02,11,16,11,11.10
